Wetbulb
42.02 37.46 32.85 37.77 38.37 36.83 38.21 38.44 37.55 39.46 43.30 43.35 42.45 42.72 44.70 44.10 42.87 46.47 49.78 50.96 54.42 55.64 57.51 58.02 59.30 60.58 59.00 55.60 56.49 59.01 59.64 59.39 60.13 57.77 57.03 56.86 57.69 57.92 58.63 59.41 60.01 60.09 60.39 60.47
34.13 33.53 39.50 40.78 40.41 38.16 37.67 37.36 36.37 39.01 42.62 43.03 42.54 42.48 44.75 43.61 41.62 40.15 40.78 45.30 49.53 51.11 54.24 56.52 56.33 58.45 60.03 57.86 56.95 57.15 58.05 57.68 59.13 59.50 58.38 58.66 58.57 59.18 60.25 61.32 61.55 61.94 62.83 63.05
32.14 36.53 40.99 38.96 38.30 36.68 33.92 34.65 36.08 36.13 38.87 40.39 40.70 37.78 38.24 41.33 41.66 40.31 40.95 40.66 42.82 44.89 48.12 50.05 55.97 56.22 58.27 57.64 57.32 58.02 58.28 57.89 57.95 58.77 59.37 60.34 60.65 60.63 60.80 62.94 63.31 64.03 64.41 64.46
32.28 39.23 38.21 37.16 36.39 38.19 33.16 38.39 38.03 36.56 35.04 30.73 37.47 29.84 32.60 36.73 38.12 38.22 38.46 39.65 40.47 42.57 46.49 47.90 51.76 53.57 53.42 55.28 56.06 57.42 57.89 58.35 58.67 59.78 59.89 60.02 59.55 59.35 60.93 62.11 62.46 62.72 63.20 63.84
29.81 33.87 34.05 33.68 35.40 38.91 35.18 39.10 37.13 36.17 32.04 32.97 33.42 30.71 33.00 36.44 34.86 37.01 38.06 38.50 39.57 41.77 43.41 44.51 46.93 49.79 51.91 53.02 53.41 55.12 56.08 56.32 56.77 57.42 59.19 60.86 60.37 60.69 61.07 60.55 60.85 59.77 58.64 59.10
32.44 36.96 35.04 33.54 38.53 38.86 39.10 37.58 36.27 34.53 31.73 25.90 32.06 31.24 30.17 33.40 35.47 36.45 38.32 39.30 39.42 41.60 42.71 43.28 44.12 46.46 46.61 47.91 48.91 50.96 51.74 51.05 51.47 53.23 54.65 57.20 59.39 58.41 56.53 55.34 55.22 54.14 54.00 56.57
30.32 31.18 35.21 36.59 34.73 37.59 36.84 31.78 24.96 20.84 18.19 21.81 32.35 30.66 31.80 35.47 37.50 36.74 37.21 38.84 40.27 41.17 42.36 42.70 42.95 43.57 44.48 44.89 45.49 47.01 47.39 46.93 48.05 48.49 48.71 49.73 53.23 52.83 52.26 51.08 50.91 50.84 51.72 52.02
26.36 21.83 32.14 36.27 32.96 31.44 32.52 31.07 23.54 16.62 19.88 23.58 31.36 27.16 30.85 36.24 38.97 39.18 39.47 39.77 40.49 40.61 41.56 42.98 43.12 43.09 43.17 43.86 44.12 44.55 44.93 45.24 46.49 47.04 47.39 47.74 48.27 48.46 48.78 48.58 48.82 49.76 49.55 49.72
28.14 25.78 33.82 34.62 35.30 33.81 30.99 27.93 33.12 26.78 21.20 22.77 24.94 27.88 34.70 37.39 36.76 36.32 37.18 39.10 39.44 40.35 41.18 42.07 43.41 43.07 43.15 43.32 43.05 44.11 44.53 44.69 45.59 46.11 46.29 46.47 47.32 48.03 48.02 48.47 48.76 48.12 48.54 48.97
32.74 26.77 31.95 34.10 34.55 34.05 31.96 34.12 25.44 25.27 15.75 16.45 23.12 23.72 25.55 31.59 33.76 35.68 35.99 36.37 37.51 39.61 40.94 41.88 42.81 43.71 43.63 43.10 42.77 42.90 43.38 43.05 43.24 44.01 44.59 44.93 45.75 46.77 46.98 47.13 46.72 46.50 46.47 46.38
34.94 31.59 28.57 31.21 29.57 28.34 29.74 28.38 29.74 28.67 26.71 21.00 19.91 22.75 30.23 32.18 34.25 34.23 35.61 37.06 37.01 37.29 38.10 40.59 42.13 43.35 43.28 42.97 42.31 41.91 42.05 42.24 42.31 42.16 42.00 42.28 43.20 44.05 44.52 44.42 44.07 44.18 44.26 44.20
35.24 30.87 22.13 25.87 32.33 33.53 31.95 28.97 29.47 22.59 21.57 25.26 24.14 24.26 34.93 34.35 35.09 35.82 35.23 37.10 37.65 38.16 38.54 38.69 39.99 41.48 42.02 42.14 42.21 41.77 41.39 41.08 41.40 41.28 40.80 40.94 41.36 42.05 42.30 42.46 42.55 43.01 42.50 42.45
35.33 27.28 13.34 20.70 27.30 30.73 29.91 31.68 31.11 29.55 28.20 24.71 20.60 23.14 33.85 35.17 34.12 35.26 34.87 35.66 36.54 36.38 36.50 37.22 38.60 39.22 39.99 40.91 41.47 41.24 40.69 40.57 41.34 41.27 40.80 40.47 40.52 40.99 41.18 41.53 41.87 41.93 41.41 40.68
36.95 29.76 21.75 17.36 22.61 27.80 26.46 30.02 31.06 28.68 21.07 24.67 25.01 24.27 28.72 33.35 32.36 33.04 33.80 35.43 35.07 34.89 35.24 35.50 36.49 36.81 37.39 38.88 39.49 40.24 40.82 40.75 40.98 40.75 40.50 40.00 39.91 40.24 40.25 40.79 40.91 40.68 40.33 39.37
30.89 18.58 22.96 25.14 26.15 27.57 27.70 28.65 29.11 28.19 27.52 23.21 24.82 26.98 30.61 33.01 30.98 30.58 33.17 34.51 34.19 34.45 34.81 34.77 34.80 35.43 36.49 37.48 37.70 38.07 38.85 39.66 39.60 39.79 39.63 39.87 39.89 39.92 39.90 39.84 39.93 39.56 38.98 38.11
29.01 17.81 20.91 15.76 24.56 23.52 22.53 25.95 26.00 27.63 29.35 27.49 27.90 27.42 33.54 32.04 30.87 29.95 33.03 32.57 32.77 33.40 34.03 34.60 35.14 35.40 35.58 36.37 36.66 37.24 37.61 38.20 38.79 38.61 38.52 38.73 38.62 38.41 38.45 38.39 38.18 38.11 37.23 36.41
25.18 16.85 10.90 9.01 18.11 15.78 11.12 19.77 24.35 24.86 26.60 28.00 25.53 29.73 29.80 28.22 30.23 30.61 31.53 31.67 31.57 32.29 33.51 34.01 34.11 34.40 34.90 35.17 35.61 35.25 35.99 36.82 37.35 38.18 38.87 38.78 38.71 37.83 37.76 37.58 37.22 36.90 36.36 35.63
22.15 15.74 9.75 7.47 7.79 3.21 21.23 23.23 23.79 24.43 25.38 28.46 27.89 28.44 29.26 27.91 30.03 31.79 31.25 30.80 31.13 32.16 32.95 33.62 33.66 33.87 34.19 33.92 33.58 33.38 34.03 34.76 35.48 36.27 36.98 37.99 38.03 37.68 37.13 36.95 36.64 35.66 36.43 34.82
27.55 23.17 11.56 9.14 -3.23 13.40 20.78 22.84 22.75 23.47 21.75 25.99 25.11 26.52 26.76 29.38 28.29 28.54 32.18 32.76 32.03 32.71 33.68 33.86 33.66 33.53 32.98 32.39 32.21 31.59 32.34 32.66 33.32 33.72 34.20 34.93 35.87 35.33 34.44 33.78 34.09 33.71 33.38 32.89
27.51 25.19 16.70 7.21 0.65 1.44 19.78 25.39 26.99 26.49 16.27 25.00 27.33 27.14 28.70 27.58 22.55 24.33 30.41 31.15 33.16 33.01 33.15 33.50 33.21 32.25 31.66 31.56 30.21 30.49 31.08 30.93 30.72 30.45 31.39 32.28 33.10 33.30 32.84 32.81 32.99 33.32 33.60 32.95
15.17 15.08 12.87 10.86 1.51 12.03 23.54 26.92 27.82 14.09 19.76 26.32 29.54 29.38 28.93 27.01 28.40 30.29 31.10 31.71 31.99 32.52 32.91 33.03 31.03 30.95 31.04 30.48 29.31 30.09 30.30 30.53 29.71 30.32 30.92 31.19 31.97 32.31 32.19 31.60 31.17 31.59 31.50 31.31
18.87 13.80 14.98 9.66 2.66 8.76 27.28 26.66 23.12 26.63 27.73 28.85 28.41 28.58 28.86 29.32 30.81 31.38 31.58 31.56 31.89 31.90 31.54 31.79 30.63 30.78 30.65 29.84 28.83 29.51 29.81 30.05 29.09 29.40 29.29 26.87 26.55 30.23 30.65 29.63 27.73 29.49 31.49 30.47
16.41 21.23 17.90 19.50 19.47 27.48 28.03 27.62 29.40 29.37 29.27 28.71 29.54 30.20 30.02 29.98 29.68 30.44 30.66 30.94 31.32 30.95 30.77 30.90 30.17 30.19 30.00 29.26 28.19 26.88 29.59 28.79 26.41 23.22 22.52 23.15 24.57 27.60 27.95 28.60 29.34 30.33 30.66 30.34
22.47 24.81 21.65 23.05 26.09 26.57 28.12 29.02 29.29 30.59 30.50 30.09 30.24 30.44 29.48 29.34 29.94 29.89 29.98 30.12 30.15 30.33 30.23 29.65 29.21 28.80 28.83 27.81 25.92 25.50 26.95 23.88 20.27 21.30 21.94 22.62 25.80 25.16 25.27 27.27 28.05 31.06 31.15 30.51
23.47 25.24 22.23 21.55 25.57 26.67 28.38 28.65 30.13 30.21 29.65 29.42 28.98 29.42 30.73 29.54 29.98 29.60 29.45 29.83 29.85 29.69 29.29 27.33 26.11 26.41 26.61 22.51 22.96 20.59 21.46 19.37 21.05 19.98 20.25 21.57 22.62 24.04 23.33 25.39 27.64 27.00 27.00 31.64
25.39 24.32 22.60 20.96 27.52 27.88 28.15 29.64 31.18 29.82 29.88 30.76 29.72 28.86 29.92 29.65 29.76 29.58 29.23 29.74 29.27 28.49 26.28 24.14 23.98 22.00 24.93 20.37 21.72 20.34 16.47 18.89 19.81 20.65 20.71 20.42 20.96 20.62 22.42 23.76 23.85 31.65 31.98 33.19
MSLP
1016.37 1016.26 1016.08 1015.14 1015.13 1014.93 1014.05 1012.80 1012.30 1012.56 1012.45 1012.09 1012.62 1013.17 1013.69 1013.17 1012.32 1011.80 1011.99 1012.15 1011.93 1012.11 1012.12 1012.23 1012.24 1012.47 1012.74 1013.15 1013.85 1014.19 1014.58 1014.93 1015.48 1016.04 1016.46 1016.79 1016.89 1016.96 1017.22 1017.33 1017.08 1016.93 1017.08 1017.13
1016.68 1016.21 1015.91 1015.30 1015.14 1014.94 1014.14 1012.36 1012.89 1013.09 1012.82 1012.76 1013.51 1013.66 1014.70 1014.42 1014.56 1013.35 1012.93 1013.37 1012.97 1012.88 1012.57 1012.55 1012.81 1012.96 1013.06 1013.19 1013.66 1014.11 1014.47 1014.80 1015.09 1015.42 1015.71 1015.95 1016.24 1016.40 1016.48 1016.56 1016.63 1016.57 1016.48 1016.55
1017.10 1016.61 1015.98 1015.62 1015.32 1014.98 1014.20 1013.55 1013.33 1013.38 1013.44 1013.84 1014.42 1015.80 1015.72 1015.56 1014.85 1014.11 1014.39 1014.89 1013.99 1013.88 1013.62 1013.46 1013.43 1013.35 1013.46 1013.76 1014.02 1014.20 1014.44 1014.68 1015.03 1015.19 1015.53 1015.84 1016.04 1016.19 1016.32 1016.35 1016.25 1016.06 1015.97 1016.04
1017.12 1016.58 1015.98 1015.76 1015.59 1015.42 1014.88 1014.48 1013.83 1014.16 1014.31 1015.30 1015.99 1016.89 1017.29 1017.12 1016.31 1015.80 1015.09 1014.99 1014.66 1014.52 1014.46 1014.42 1014.56 1014.36 1014.45 1014.57 1014.64 1014.68 1014.84 1015.11 1015.23 1015.53 1015.76 1015.84 1015.83 1015.97 1015.84 1015.72 1015.77 1015.76 1015.80 1015.88
1017.44 1016.86 1016.22 1016.09 1016.32 1015.83 1015.83 1014.99 1014.62 1015.00 1015.39 1016.19 1017.07 1017.55 1018.19 1017.73 1017.93 1016.96 1016.13 1015.96 1015.62 1015.20 1015.26 1015.33 1015.69 1015.46 1015.52 1015.34 1015.21 1015.20 1015.36 1015.52 1015.62 1015.69 1015.78 1015.90 1016.04 1015.91 1015.86 1015.66 1015.72 1015.91 1015.94 1015.99
1017.52 1016.87 1016.41 1016.30 1016.18 1016.15 1015.73 1015.25 1015.11 1015.67 1016.05 1017.28 1018.11 1018.09 1018.89 1018.46 1018.76 1017.97 1017.14 1016.25 1016.05 1015.89 1016.10 1016.36 1016.00 1015.93 1016.10 1016.05 1015.46 1015.53 1015.66 1015.92 1015.84 1015.90 1015.96 1015.69 1015.77 1015.70 1015.84 1015.97 1016.06 1016.22 1016.38 1016.34
1017.87 1017.38 1016.68 1016.10 1016.03 1016.16 1016.43 1016.52 1016.75 1017.13 1017.75 1018.60 1018.53 1018.53 1019.17 1019.13 1018.62 1018.02 1017.63 1017.04 1016.47 1016.52 1016.84 1016.96 1016.85 1016.78 1016.55 1016.68 1016.34 1016.17 1016.12 1016.50 1016.48 1016.19 1016.45 1016.14 1016.13 1016.29 1016.32 1016.39 1016.44 1016.54 1016.66 1016.84
1019.22 1018.03 1017.30 1016.74 1016.68 1016.72 1016.74 1017.30 1018.16 1018.54 1018.66 1018.92 1018.87 1019.11 1018.65 1018.12 1018.29 1017.83 1017.34 1017.26 1016.86 1016.71 1016.95 1016.98 1016.76 1016.78 1016.88 1016.86 1016.89 1016.94 1016.97 1017.03 1016.94 1016.89 1016.92 1016.65 1016.60 1016.44 1016.48 1016.51 1016.69 1016.78 1017.01 1017.24
1019.90 1018.81 1017.69 1017.32 1017.02 1017.12 1017.12 1017.66 1017.99 1018.68 1019.65 1019.34 1019.50 1018.81 1018.25 1018.43 1018.16 1017.78 1017.54 1017.24 1017.20 1017.28 1016.99 1016.84 1016.96 1017.06 1017.06 1017.22 1017.33 1017.16 1017.10 1017.17 1017.16 1017.05 1016.90 1016.86 1016.72 1016.77 1016.89 1016.93 1017.00 1017.29 1017.38 1017.51
1020.67 1019.92 1018.60 1017.87 1017.48 1017.34 1017.19 1017.60 1018.26 1019.06 1020.11 1020.33 1020.31 1019.49 1019.05 1018.68 1018.27 1018.14 1018.09 1017.95 1017.90 1017.81 1017.47 1017.43 1017.22 1017.18 1017.28 1017.32 1017.44 1017.32 1017.33 1017.39 1017.24 1017.18 1017.13 1017.14 1017.02 1017.00 1017.10 1017.14 1017.25 1017.64 1017.88 1018.01
1020.99 1020.70 1019.73 1018.81 1019.15 1018.91 1018.24 1017.98 1018.58 1019.32 1020.25 1020.52 1020.66 1020.36 1019.19 1018.92 1018.85 1018.92 1018.88 1018.73 1018.61 1018.50 1018.19 1018.02 1017.77 1017.68 1017.71 1017.68 1017.60 1017.65 1017.64 1017.83 1017.73 1017.60 1017.60 1017.60 1017.65 1017.63 1017.51 1017.69 1017.77 1018.00 1018.07 1018.19
1021.72 1021.51 1021.14 1020.37 1019.73 1019.50 1019.27 1019.21 1019.21 1019.65 1020.54 1020.53 1020.38 1020.66 1019.46 1019.32 1019.28 1019.34 1019.40 1019.35 1019.29 1019.12 1019.04 1018.99 1018.79 1018.60 1018.38 1018.09 1017.92 1017.89 1017.80 1018.08 1018.12 1018.02 1017.77 1017.86 1018.29 1018.28 1018.29 1018.17 1018.16 1018.24 1018.22 1018.53
1021.92 1022.34 1022.36 1021.53 1020.80 1020.18 1020.27 1020.02 1019.80 1019.95 1020.51 1021.13 1020.90 1021.06 1020.18 1019.99 1019.84 1019.85 1019.97 1020.06 1020.05 1019.91 1019.72 1019.67 1019.49 1019.40 1019.13 1018.79 1018.51 1018.25 1018.23 1018.18 1018.09 1018.26 1018.27 1018.22 1018.08 1018.07 1018.26 1018.49 1018.65 1018.66 1018.98 1019.15
1022.52 1023.28 1023.68 1023.47 1022.84 1022.38 1021.68 1021.25 1020.85 1020.73 1021.19 1021.28 1021.15 1020.80 1020.62 1020.38 1020.39 1020.47 1020.54 1020.55 1020.67 1020.73 1020.68 1020.61 1020.45 1020.27 1019.85 1019.42 1019.14 1018.79 1018.47 1018.39 1018.23 1018.20 1018.34 1018.56 1018.65 1018.64 1018.62 1018.70 1018.84 1018.94 1019.37 1019.82
1023.68 1024.75 1024.97 1024.73 1024.20 1023.35 1022.65 1022.15 1021.70 1021.46 1021.46 1021.41 1021.25 1020.78 1020.72 1020.70 1020.77 1020.86 1020.78 1021.05 1021.19 1021.31 1021.27 1021.26 1021.19 1020.96 1020.62 1020.12 1019.75 1019.43 1019.15 1018.84 1018.57 1018.50 1018.46 1018.42 1018.50 1018.77 1018.98 1019.06 1019.07 1019.34 1019.95 1020.48
1024.51 1025.80 1026.43 1026.44 1025.60 1024.79 1023.83 1022.77 1022.23 1021.82 1021.50 1021.32 1021.23 1021.03 1020.64 1020.53 1020.66 1021.07 1021.41 1021.77 1021.86 1021.85 1021.80 1021.71 1021.58 1021.30 1021.11 1020.89 1020.56 1020.25 1019.79 1019.30 1018.87 1018.74 1018.55 1018.51 1018.57 1018.58 1018.92 1019.34 1019.66 1020.13 1020.50 1020.59
1025.50 1026.70 1027.97 1028.18 1027.12 1025.86 1024.63 1022.94 1022.35 1021.86 1021.46 1021.24 1021.18 1020.69 1020.60 1020.73 1020.89 1021.23 1021.71 1021.86 1022.04 1022.13 1022.14 1022.13 1022.02 1021.80 1021.48 1021.23 1021.03 1020.80 1020.26 1019.67 1019.26 1018.93 1018.66 1018.58 1018.63 1018.93 1018.95 1019.02 1019.34 1019.84 1020.20 1020.77
1026.19 1027.83 1028.98 1029.82 1028.90 1027.26 1024.29 1022.88 1022.37 1022.06 1021.64 1021.23 1021.02 1020.92 1020.89 1020.97 1021.24 1021.41 1021.64 1021.89 1022.01 1022.03 1022.09 1022.21 1022.21 1022.04 1021.80 1021.50 1021.18 1020.97 1020.61 1020.12 1019.68 1019.27 1018.90 1018.65 1018.69 1018.99 1019.20 1019.56 1019.65 1019.18 1019.64 1020.44
1026.19 1027.63 1029.72 1030.73 1030.30 1027.93 1024.52 1022.87 1022.17 1021.69 1021.51 1020.96 1021.13 1021.05 1021.05 1021.30 1021.55 1021.79 1021.76 1021.81 1021.89 1022.03 1022.06 1022.17 1022.24 1022.27 1022.17 1021.99 1021.65 1021.21 1020.67 1020.38 1020.03 1019.69 1019.34 1018.97 1018.75 1018.90 1019.26 1019.60 1019.88 1020.21 1020.58 1020.88
1026.66 1027.34 1029.12 1031.04 1030.77 1028.08 1024.46 1022.58 1021.81 1021.60 1021.70 1021.27 1021.20 1021.22 1021.44 1021.76 1022.33 1022.53 1021.82 1021.91 1022.07 1022.13 1022.15 1022.09 1022.06 1022.12 1022.03 1021.77 1021.59 1021.21 1020.80 1020.52 1020.39 1020.10 1019.66 1019.21 1018.92 1019.07 1019.34 1019.57 1020.00 1020.31 1020.48 1021.21
1027.40 1028.23 1029.39 1030.33 1029.49 1026.59 1023.71 1022.24 1021.70 1021.84 1021.98 1021.03 1021.09 1021.31 1021.65 1021.98 1022.04 1022.06 1021.96 1022.00 1021.92 1021.97 1021.95 1021.82 1021.90 1022.00 1021.76 1021.57 1021.48 1021.27 1021.00 1020.79 1020.64 1020.33 1019.91 1019.59 1019.37 1019.32 1019.48 1019.87 1020.20 1020.54 1021.09 1021.62
1026.51 1027.39 1028.35 1028.76 1028.09 1025.41 1022.55 1022.36 1021.92 1021.47 1021.19 1021.08 1021.17 1021.27 1021.56 1021.87 1021.91 1021.94 1021.95 1021.95 1021.84 1021.77 1021.63 1021.70 1021.89 1021.70 1021.50 1021.56 1021.63 1021.40 1021.15 1020.83 1020.72 1020.46 1020.23 1020.16 1019.88 1019.80 1019.88 1020.10 1020.56 1020.98 1021.47 1021.91
1025.60 1024.86 1025.46 1025.63 1024.48 1022.78 1021.94 1021.51 1021.21 1021.14 1021.20 1021.25 1021.40 1021.39 1021.62 1021.98 1022.00 1021.98 1021.95 1021.92 1021.67 1021.65 1021.55 1021.48 1021.71 1021.57 1021.30 1021.44 1021.55 1021.50 1021.04 1021.05 1021.14 1021.21 1020.98 1020.84 1020.61 1020.52 1020.56 1020.70 1021.01 1021.34 1021.59 1021.98
1024.18 1023.86 1024.19 1024.04 1022.27 1022.00 1021.61 1021.23 1021.07 1021.00 1021.10 1021.14 1021.28 1021.42 1021.64 1021.84 1021.75 1021.89 1021.80 1021.82 1021.69 1021.47 1021.44 1021.41 1021.55 1021.58 1021.36 1021.12 1021.27 1021.34 1021.17 1021.28 1021.55 1021.71 1021.55 1021.13 1020.90 1021.00 1020.83 1021.07 1021.00 1021.04 1021.16 1021.57
1023.03 1023.01 1022.88 1022.63 1021.82 1021.49 1020.85 1020.74 1020.55 1020.69 1020.96 1021.15 1021.30 1021.47 1021.55 1021.76 1021.67 1021.68 1021.57 1021.45 1021.37 1021.34 1021.20 1021.27 1021.65 1021.56 1021.23 1020.96 1020.96 1021.01 1021.15 1021.30 1021.67 1021.66 1021.83 1021.64 1021.07 1020.82 1020.87 1020.73 1020.73 1020.99 1020.77 1020.70
1021.94 1021.29 1021.36 1020.98 1020.61 1020.35 1020.23 1019.85 1020.14 1020.60 1020.91 1021.10 1021.31 1021.36 1021.34 1021.51 1021.53 1021.37 1021.44 1021.15 1021.15 1021.07 1021.00 1021.19 1021.21 1021.40 1020.91 1020.95 1020.88 1020.93 1021.05 1021.21 1021.42 1021.49 1021.43 1021.68 1021.91 1021.70 1021.30 1021.06 1020.93 1020.80 1020.82 1020.89
Wind_Speed
0 3 7 7 4 6 6 13 8 5 3 2 8 13 7 14 13 5 4 5 5 4 5 4 5 6 7 7 8 10 9 8 6 2 3 3 4 3 3 4 6 7 6 6
4 9 12 13 6 2 9 11 6 8 7 4 7 6 4 9 8 9 11 8 5 4 5 4 1 4 5 6 7 6 8 7 8 5 3 3 4 3 3 4 6 7 7 6
3 4 6 9 5 3 5 5 3 5 6 13 7 4 7 7 11 9 9 5 7 7 6 8 7 4 4 4 2 5 5 6 6 6 2 2 2 1 2 3 3 5 6 6
2 5 5 7 4 9 5 11 4 9 3 4 5 3 3 7 16 10 11 11 9 8 7 8 7 7 6 4 3 5 5 4 3 1 3 5 3 5 5 4 2 3 2 4
4 4 6 5 6 6 3 8 5 2 7 5 6 5 3 3 7 12 12 9 8 8 6 10 8 7 5 5 4 4 4 4 3 2 2 4 4 3 2 2 3 1 2 4
3 3 2 0 2 4 7 5 5 3 2 5 2 3 2 1 1 9 11 8 8 8 8 7 4 6 5 5 3 4 4 4 4 2 3 2 6 4 2 2 2 1 1 2
6 5 5 4 4 2 7 7 4 5 6 2 2 3 0 2 5 6 7 8 8 6 6 5 6 5 4 4 5 5 5 2 2 1 1 0 3 3 4 2 2 1 1 2
4 7 7 6 3 1 2 4 3 2 1 2 4 3 2 6 6 5 7 5 7 7 5 6 7 6 6 7 6 4 3 3 3 3 2 2 2 2 2 2 1 2 2 2
5 3 5 3 1 1 4 3 3 4 2 4 3 2 3 5 3 4 6 7 9 7 8 8 6 5 6 6 6 6 4 2 2 3 3 3 3 4 3 4 4 3 3 2
3 4 2 4 3 3 1 2 4 4 3 3 4 3 2 1 4 5 6 7 7 7 8 7 6 6 5 4 4 6 5 4 4 4 4 3 4 4 4 4 5 5 4 3
3 1 6 3 5 3 6 4 4 4 3 2 3 2 3 2 4 5 6 6 6 7 8 8 8 7 5 4 4 4 4 4 4 4 4 5 4 4 4 4 4 3 4 4
2 2 2 2 5 3 2 1 2 4 4 2 3 0 4 4 3 4 6 7 7 7 7 8 8 7 7 7 6 5 4 4 3 2 3 5 3 4 3 3 3 3 5 3
1 1 4 9 6 5 5 4 3 4 3 2 3 4 2 6 6 6 6 7 7 8 9 8 10 9 8 8 7 6 5 4 3 1 1 2 2 5 4 2 3 4 4 4
4 1 4 5 3 2 2 4 4 2 4 3 1 3 3 6 5 4 4 5 6 6 7 6 8 8 8 8 8 8 7 5 3 1 2 3 3 2 1 2 3 4 3 2
3 2 1 1 4 2 1 1 3 3 0 4 2 2 5 2 2 2 3 5 7 8 8 8 7 7 7 9 9 8 7 6 4 3 3 5 3 1 1 2 4 5 5 4
2 2 2 3 5 5 2 3 1 2 2 2 0 2 5 3 3 4 5 5 6 6 7 7 7 7 7 7 8 8 8 8 6 6 6 4 3 5 5 3 4 4 5 5
3 4 4 5 5 6 6 4 5 2 2 4 4 6 1 3 5 4 6 5 4 4 5 7 7 7 7 7 6 7 9 8 7 6 6 5 4 5 5 6 7 7 6 4
5 4 3 3 5 3 7 2 2 5 4 6 2 3 2 2 3 5 3 4 3 4 4 5 4 6 7 6 6 6 6 6 7 7 6 4 5 5 5 3 3 6 7 7
3 4 4 4 3 6 5 1 4 4 2 2 2 3 2 4 4 2 2 2 3 4 4 4 3 3 5 6 7 7 6 6 6 7 7 6 4 5 5 5 6 4 3 2
4 6 5 3 5 6 5 1 0 3 4 2 3 3 6 4 3 4 4 3 6 5 4 5 5 4 5 5 6 6 7 6 6 7 7 6 4 4 5 6 6 2 3 4
3 3 5 2 2 9 9 6 2 8 6 2 4 4 5 3 5 4 3 6 4 5 6 4 4 5 7 6 6 7 6 7 6 6 5 5 4 3 4 5 2 4 5 5
6 6 4 3 3 9 6 6 5 5 1 2 2 1 2 2 4 5 7 7 7 8 6 5 5 6 5 4 3 5 5 5 5 3 3 3 2 3 4 6 3 5 5 5
3 7 7 9 8 4 5 2 4 3 3 2 2 4 4 6 6 7 7 7 7 8 7 5 5 7 6 4 4 5 4 3 3 2 2 2 3 3 2 5 5 4 5 4
4 4 3 3 4 8 7 5 4 5 5 3 4 5 3 6 7 8 7 8 7 7 7 4 5 8 8 5 5 6 4 1 2 2 2 2 4 3 3 2 0 5 5 4
4 8 7 4 5 5 7 7 5 4 4 5 4 4 7 5 9 7 7 8 7 7 6 4 6 7 10 4 7 5 5 4 3 2 3 4 2 4 4 3 4 1 2 5
6 8 6 6 7 5 4 3 4 4 5 7 6 5 6 6 9 6 8 8 6 8 5 4 6 6 9 5 6 5 5 6 5 4 3 2 2 3 2 1 0 5 6 8
Wind_Direction
250 298 2 16 119 282 272 251 139 70 63 111 176 135 356 355 2 38 120 238 212 263 330 254 184 172 162 165 168 187 186 188 166 144 162 185 213 199 217 237 226 210 217 218
352 8 353 341 44 230 270 120 103 77 79 80 146 180 354 360 332 27 22 12 34 5 6 338 231 189 173 172 190 179 197 187 189 189 178 165 160 199 184 208 223 225 219 218
45 295 11 359 35 11 2 21 75 108 90 47 79 61 14 320 345 31 40 324 50 36 30 20 26 88 73 74 189 191 206 200 208 197 144 107 120 69 161 222 220 219 218 221
26 307 338 354 345 356 19 339 90 117 51 122 359 130 46 355 324 350 21 6 19 31 24 35 26 36 40 55 50 64 74 77 57 216 209 216 217 203 202 198 202 233 287 270
291 329 358 21 339 348 4 322 20 120 99 122 17 86 347 26 307 349 347 358 11 22 38 35 13 28 12 17 23 45 53 63 23 0 236 226 231 236 257 179 185 105 52 31
294 293 77 74 7 19 320 335 46 44 75 65 76 106 313 104 297 320 323 346 17 22 32 49 58 36 14 7 73 65 59 31 48 353 306 240 239 205 209 170 184 135 57 38
337 339 329 17 25 88 30 22 13 9 29 122 85 62 346 294 295 280 287 338 354 28 27 34 55 52 28 19 29 45 75 71 41 79 38 40 262 217 195 185 179 174 58 45
10 346 0 349 47 319 351 94 127 198 38 67 354 73 87 187 213 273 321 354 6 20 19 20 28 30 23 14 25 47 85 115 91 89 54 28 54 98 80 95 114 94 102 98
345 320 331 329 335 71 317 50 172 104 25 59 343 33 42 293 275 10 12 24 24 5 2 7 20 36 24 18 11 8 14 50 78 108 110 77 63 71 92 77 75 83 80 81
7 306 357 305 345 350 45 230 41 18 56 66 16 23 130 56 39 24 19 27 19 3 9 10 11 16 13 17 6 17 16 11 9 25 38 48 69 76 66 69 77 76 69 65
19 39 294 53 21 341 349 21 56 114 111 132 124 326 226 105 22 34 28 27 29 20 9 1 0 0 1 1 9 2 13 0 9 27 29 33 28 42 73 92 90 99 100 100
342 14 299 240 278 277 262 88 96 103 333 36 80 297 86 44 344 36 36 28 32 37 24 16 10 3 0 353 348 344 349 335 325 351 102 96 39 22 46 81 97 98 99 97
310 1 6 347 0 11 32 353 65 92 88 57 103 203 194 24 27 31 51 32 27 29 25 16 16 13 11 4 355 348 337 322 335 330 333 342 138 150 136 91 61 69 69 73
29 30 153 192 208 263 12 6 13 65 96 162 178 153 218 33 61 57 32 62 55 43 30 18 16 4 359 4 7 359 347 332 312 323 344 324 310 302 45 105 103 87 82 90
76 131 57 334 340 335 331 348 10 56 162 134 162 142 165 42 164 134 61 52 43 25 18 10 5 355 352 359 354 353 353 346 319 284 243 233 234 269 114 121 101 87 77 65
49 152 78 319 352 15 318 260 194 307 259 273 326 285 207 195 131 94 90 72 41 17 4 354 349 352 359 351 345 339 342 338 332 287 265 273 230 170 162 132 95 90 93 86
72 116 67 268 351 339 351 224 186 213 204 149 178 230 101 61 32 86 110 101 75 14 347 342 336 333 334 340 333 336 327 324 330 311 289 265 222 217 198 170 157 153 134 119
118 86 73 230 12 30 247 306 190 222 256 231 249 271 304 107 111 115 135 124 33 340 332 322 312 323 327 328 328 318 319 330 329 321 308 272 225 221 191 187 202 152 142 138
58 117 86 115 180 286 311 195 138 149 322 238 227 264 315 90 79 2 226 318 319 326 314 277 279 283 298 310 316 320 331 338 340 338 324 308 255 205 170 172 162 134 90 108
85 78 107 80 126 208 242 211 100 117 337 268 195 174 146 116 87 264 278 281 285 286 276 289 307 296 299 314 324 333 336 341 343 327 311 311 287 199 181 170 161 126 117 129
99 33 136 153 221 287 245 231 338 81 224 157 140 162 161 167 192 213 285 289 254 246 265 266 282 280 289 311 332 332 333 336 318 318 340 6 20 104 136 124 97 111 109 108
157 141 180 103 77 277 181 72 159 204 161 107 130 200 219 214 278 271 289 277 286 292 297 269 279 283 269 259 285 302 308 306 313 328 22 28 45 107 124 121 96 101 110 117
208 177 176 180 210 251 214 183 170 135 158 183 199 250 257 268 257 272 265 279 278 282 284 275 269 292 285 252 229 283 282 315 324 26 46 47 37 46 64 121 121 116 126 140
234 168 191 108 236 225 239 246 227 192 221 245 227 254 242 247 266 265 270 267 266 268 279 252 263 272 276 243 232 230 269 263 157 230 229 168 127 111 80 34 330 150 151 143
193 142 179 259 278 298 263 223 226 237 244 262 271 227 250 250 270 252 270 275 267 265 275 236 247 257 260 234 240 230 222 174 189 212 269 276 216 171 163 183 182 215 313 179
184 185 172 211 212 176 215 148 151 211 221 222 231 261 256 218 250 268 266 261 264 271 269 262 255 253 269 252 256 248 214 195 182 205 206 207 296 313 317 205 280 235 227 214